Hailey, ID

10:55 PM MDT on September 24, 2017 (GMT -0600)
Friedman Memorial

Weather History for KSUN - October, 2013

Change the Weather History Date:

Saturday, October 12, 2013

  Actual Average Record
Temperature  
Mean Temperature 43 °F -  
Max Temperature 53 °F 60 °F 75 °F (1999)
Min Temperature 33 °F 33 °F 21 °F (1997)
Degree Days  
Heating Degree Days 22    
Moisture  
Dew Point 29 °F    
Average Humidity 67    
Maximum Humidity 81    
Minimum Humidity 35    
Precipitation  
Precipitation 0.00 in - - ()
Sea Level Pressure  
Sea Level Pressure 30.03 in    
Wind  
Wind Speed 5 mph (NW)    
Max Wind Speed 9 mph    
Max Gust Speed -    
Visibility 10 miles    
Events Rain    
Averages and records for this station are not official NWS values.
T = Trace of Precipitation, MM = Missing Value Source: NWS Daily Summary

Daily Weather History Graph

Daily Weather History Graph

Search for Another Location

Airport or City:

Trip Planner

Search our weather history database for the weather conditions in past years. The results will help you decide how hot, cold, wet, or windy it might be!

Date:

Astronomy

Oct. 12, 2013 Rise Set
Actual Time 7:48 AM MDT 6:58 PM MDT
Civil Twilight 7:19 AM MDT 7:27 PM MDT
Nautical Twilight 6:46 AM MDT 8:00 PM MDT
Astronomical Twilight 6:12 AM MDT 8:33 PM MDT
Moon 3:21 PM MDT (10/12) 12:44 AM MDT (10/12)
Length of Visible Light 12h 07m
Length of Day
11h 10m
First Quarter, 59% of the Moon is Illuminated
Oct 12
First Quarter
Oct 18
Full
Oct 26
Last Quarter
Nov 3
New
Nov 9
First Quarter

Hourly Weather History & Observations

Time (MDT) Temp. Windchill Dew Point Humidity Pressure Visibility Wind Dir Wind Speed Gust Speed Precip Events Conditions
12:15 AM 35.6 °F 29.9 °F 28.4 °F 75% 30.06 in 10.0 mi NW 6.9 mph - N/A   Clear
12:35 AM 35.6 °F 30.7 °F 28.4 °F 75% 30.06 in 10.0 mi NW 5.8 mph - N/A   Clear
12:55 AM 35.6 °F 32.8 °F 28.4 °F 75% 30.06 in 10.0 mi NW 3.5 mph - N/A   Clear
1:15 AM 35.6 °F 31.7 °F 28.4 °F 75% 30.06 in 10.0 mi NW 4.6 mph - N/A   Clear
1:35 AM 35.6 °F 30.7 °F 28.4 °F 75% 30.06 in 10.0 mi WNW 5.8 mph - N/A   Clear
1:55 AM 35.6 °F 31.7 °F 28.4 °F 75% 30.06 in 10.0 mi NW 4.6 mph - N/A   Clear
2:15 AM 33.8 °F 28.6 °F 28.4 °F 81% 30.06 in 10.0 mi NW 5.8 mph - N/A   Clear
2:35 AM 35.6 °F 30.7 °F 28.4 °F 75% 30.06 in 10.0 mi NW 5.8 mph - N/A   Clear
2:55 AM 33.8 °F 29.6 °F 28.4 °F 81% 30.06 in 10.0 mi NW 4.6 mph - N/A   Clear
3:15 AM 33.8 °F 29.6 °F 28.4 °F 81% 30.06 in 10.0 mi NNW 4.6 mph - N/A   Clear
3:35 AM 33.8 °F 29.6 °F 28.4 °F 81% 30.06 in 10.0 mi NW 4.6 mph - N/A   Clear
3:55 AM 33.8 °F 29.6 °F 28.4 °F 81% 30.06 in 10.0 mi WNW 4.6 mph - N/A   Clear
4:15 AM 33.8 °F 29.6 °F 28.4 °F 81% 30.05 in 10.0 mi NW 4.6 mph - N/A   Clear
4:35 AM 33.8 °F 29.6 °F 28.4 °F 81% 30.05 in 10.0 mi NW 4.6 mph - N/A   Clear
4:55 AM 33.8 °F 28.6 °F 28.4 °F 81% 30.04 in 10.0 mi NW 5.8 mph - N/A   Scattered Clouds
5:15 AM 33.8 °F 28.6 °F 28.4 °F 81% 30.04 in 10.0 mi NW 5.8 mph - N/A   Scattered Clouds
5:35 AM 33.8 °F 28.6 °F 28.4 °F 81% 30.04 in 10.0 mi WNW 5.8 mph - N/A   Mostly Cloudy
5:55 AM 33.8 °F 27.7 °F 28.4 °F 81% 30.04 in 10.0 mi NW 6.9 mph - N/A   Overcast
6:15 AM 33.8 °F 27.7 °F 28.4 °F 81% 30.04 in 10.0 mi NW 6.9 mph - N/A   Overcast
6:35 AM 33.8 °F 26.4 °F 28.4 °F 81% 30.04 in 10.0 mi NNW 9.2 mph - N/A   Overcast
6:47 AM 35.6 °F 29.2 °F 28.4 °F 75% 30.04 in 10.0 mi NW 8.1 mph - N/A   Mostly Cloudy
6:55 AM 35.6 °F 31.7 °F 28.4 °F 75% 30.04 in 10.0 mi NNW 4.6 mph - N/A   Scattered Clouds
7:47 AM 35.6 °F 29.9 °F 28.4 °F 75% 30.04 in 10.0 mi WNW 6.9 mph - N/A   Overcast
8:47 AM 35.6 °F 30.7 °F 28.4 °F 75% 30.05 in 10.0 mi WNW 5.8 mph - N/A   Mostly Cloudy
9:47 AM 37.4 °F 30.8 °F 28.4 °F 70% 30.05 in 10.0 mi WNW 9.2 mph - N/A   Mostly Cloudy
10:48 AM 42.8 °F 38.0 °F 28.4 °F 57% 30.05 in 10.0 mi NW 8.1 mph - N/A   Scattered Clouds
11:47 AM 46.4 °F - 26.6 °F 46% 30.02 in 10.0 mi Calm Calm - N/A   Scattered Clouds
12:50 PM 51.8 °F - 26.6 °F 38% 30.01 in 10.0 mi SSE 4.6 mph - N/A   Mostly Cloudy
1:47 PM 51.8 °F - 28.4 °F 41% 29.99 in 10.0 mi SE 9.2 mph - N/A   Mostly Cloudy
2:47 PM 53.6 °F - 26.6 °F 35% 29.97 in 10.0 mi ESE 5.8 mph - N/A   Scattered Clouds
3:55 PM 53.6 °F - 28.4 °F 38% 29.96 in 10.0 mi Calm Calm - N/A   Overcast
4:50 PM 53.6 °F - 28.4 °F 38% 29.96 in 10.0 mi Calm Calm - N/A   Overcast
6:47 PM 51.8 °F - 30.2 °F 44% 29.96 in 10.0 mi Calm Calm - N/A   Overcast
7:47 PM 48.2 °F - 28.4 °F 46% 29.96 in 10.0 mi Calm Calm - N/A   Overcast
8:47 PM 48.2 °F - 30.2 °F 50% 29.98 in 10.0 mi SW 5.8 mph - N/A   Overcast
9:47 PM 48.2 °F - 30.2 °F 50% 30.00 in 10.0 mi North 4.6 mph - N/A   Overcast
10:47 PM 48.2 °F - 30.2 °F 50% 30.00 in 10.0 mi North 6.9 mph - N/A   Overcast
11:15 PM 44.6 °F 39.7 °F 33.8 °F 66% 30.00 in 10.0 mi ENE 9.2 mph - N/A Rain Light Rain
11:35 PM 42.8 °F 37.5 °F 35.6 °F 76% 30.00 in 10.0 mi North 9.2 mph - N/A   Mostly Cloudy
11:55 PM 42.8 °F 40.1 °F 35.6 °F 76% 30.00 in 10.0 mi NNW 4.6 mph - N/A   Mostly Cloudy